Weather in Leknes

Norway     68°08′17″N   13°36′13″E
temp.,
°C
wind,
m/s
gust,
m/s
humid.,
%
clouds,
%
prec.,
mm/h
press.,
hPa
HPBL,
m
15 may, sat
sat1523:00+6ne568295 0.0 1011129
02:00+6ne4584100 0.4 1011155
05:00+5ne348790 0.8 1011122
08:00+6ne458597 0.8 1011198
11:00+7ne667872 0.0 1010288
14:00+7nne767463 0.0 1009295
17:00+7nne777690 0.0 1008252
20:00+7ne778067 0.0 1007215
16 may, sun
sun1623:00+6ne678569 0.0 1006133
02:00+6ne4586100 0.0 100679
05:00+7ne3382100 0.0 100553
08:00+8ne338031 0.0 1005132
11:00+9ne337980 0.0 1005197
14:00+9ne437797 0.0 1005271
17:00+9ne537719 0.0 1004284
20:00+9ne548137 0.0 1004220
17 may, mon
mon1723:00+8ne228395 0.0 1005108
02:00+8ne008698 0.0 100545
05:00+8s458586 0.1 100677
08:00+8s2388100 0.4 100769
11:00+9w1182100 0.0 100796
14:00+9nne2182100 0.1 1008235
17:00+10nne3277100 0.0 1008279
20:00+8nne668958 0.0 1007158
18 may, tue
tue1823:00+6nne8994100 0.0 1007199
02:00+6nne91195100 0.0 1005250
05:00+6ne91095100 0.0 1002258
08:00+6ne91095100 0.4 999221
11:00+9ne667913 0.0 997298
14:00+11e586861 0.0 997395
17:00+9sw477866 0.0 998369
20:00+8s3584100 0.1 998253
19 may, wed
wed1923:00+8s3391100 1.1 999177
02:00+7se1193100 2.2 999106
05:00+8e1191100 0.4 99958
08:00+7s2394100 1.4 999152
11:00+7s2392100 0.9 1000167
14:00+7ssw4489100 1.0 1001253
17:00+6ssw4589100 0.5 1002306
20:00+6ssw4584100 0.6 1003356